GW4540 Weather Reports


time (UTC)temp
F
wind
direction
speed
knots
gust
knots
rain 1hr
in
rain 24hr
in
rain mn
in
humidity
%
barometer
mb
20260502170441 87 166 4.3 6.1 0.00 0.00 0.00 20 1014.4
20260502163438 87 196 1.7 2.6 0.00 0.00 0.00 20 1014.2
20260502161936 83 80 1.7 1.7 0.00 0.00 0.00 23 1014.4
20260502160434 84 97 1.7 1.7 0.00 0.00 0.00 22 1014.1
20260502151929 82 184 2.6 4.3 0.00 0.00 0.00 24 1013.8
20260502150425 81 80 2.6 5.2 0.00 0.00 0.00 23 1013.6
20260502130404 70 126 0.0 0.0 0.00 0.00 0.00 23 1012.3
20260502123358 72 78 0.9 0.9 0.00 0.00 0.00 22 1011.8
20260502121856 73 61 2.6 2.6 0.00 0.00 0.00 21 1011.8
20260502120352 68 97 0.9 0.9 0.00 0.00 0.00 25 1011.8
20260502114848 66 133 0.0 0.0 0.00 0.00 0.00 28 1011.6
20260502113346 67 128 0.0 0.0 0.00 0.00 0.00 28 1011.6
20260502111845 68 136 0.0 0.9 0.00 0.00 0.00 25 1011.3
20260502110343 70 117 0.0 0.0 0.00 0.00 0.00 23 1011.5
20260502104841 71 52 0.0 0.9 0.00 0.00 0.00 23 1011.4
20260502103338 73 10 1.7 1.7 0.00 0.00 0.00 21 1011.3
20260502101835 73 23 1.7 1.7 0.00 0.00 0.00 21 1011.1
20260502100330 71 124 0.0 0.0 0.00 0.00 0.00 23 1011.1
20260502090320 74 66 1.7 1.7 0.00 0.00 0.00 21 1010.7
20260502070303 75 136 0.0 0.9 0.00 0.00 0.00 19 1010.1
20260502064758 76 154 0.9 0.9 0.00 0.00 0.00 19 1010.3
20260502063256 77 149 0.9 0.9 0.00 0.00 0.00 18 1010.1
20260502061755 77 176 0.9 0.9 0.00 0.00 0.00 18 1009.7
20260502060254 77 110 1.7 2.6 0.00 0.00 0.00 18 1009.6
20260502054749 77 182 2.6 2.6 0.00 0.00 0.00 18 1009.7
20260502053246 77 167 0.9 0.9 0.00 0.00 0.00 19 1009.7
20260502051746 78 179 0.9 0.9 0.00 0.00 0.00 19 1009.4
20260502050242 79 156 0.9 0.9 0.00 0.00 0.00 18 1009.5
20260502044739 79 124 0.0 0.0 0.00 0.00 0.00 18 1009.4
20260502043236 80 142 0.0 0.0 0.00 0.00 0.00 17 1009.3
20260502041736 81 132 0.9 0.9 0.00 0.00 0.00 16 1008.8
20260502040233 82 151 0.9 0.9 0.00 0.00 0.00 16 1008.9
20260502034729 82 201 0.9 0.9 0.00 0.00 0.00 16 1008.6
20260502033229 83 207 1.7 1.7 0.00 0.00 0.00 16 1008.7
20260502031725 83 170 0.9 0.9 0.00 0.00 0.00 15 1008.7
20260502030224 84 186 0.9 0.9 0.00 0.00 0.00 16 1008.3
20260502024723 85 216 0.9 1.7 0.00 0.00 0.00 16 1008.3
20260502023221 85 205 0.9 0.9 0.00 0.00 0.00 15 1008.3
20260502021718 86 172 0.9 1.7 0.00 0.00 0.00 15 1008.2
20260502020215 87 205 0.9 1.7 0.00 0.00 0.00 14 1008.4
20260502014713 88 181 1.7 2.6 0.00 0.00 0.00 14 1008.1
20260502013213 89 189 3.5 5.2 0.00 0.00 0.00 14 1008.0
20260502011711 89 139 0.9 0.9 0.00 0.00 0.00 14 1007.9
20260502010207 91 162 1.7 1.7 0.00 0.00 0.00 13 1008.4
20260502004703 90 160 2.6 2.6 0.00 0.00 0.00 14 1008.1
20260502003201 90 179 2.6 2.6 0.00 0.00 0.00 14 1008.3
20260502001657 91 205 2.6 2.6 0.00 0.00 0.00 14 1008.1
20260502000156 91 220 4.3 5.2 0.00 0.00 0.00 14 1008.3
20260501234655 91 236 0.9 1.7 0.00 0.00 0.00 15 1008.6
20260501233153 90 199 4.3 6.1 0.00 0.00 0.00 16 1008.3
20260501231650 92 211 1.7 2.6 0.00 0.00 0.00 15 1008.3
20260501230150 90 185 6.1 7.0 0.00 0.00 0.00 16 1008.3
20260501224646 89 169 2.6 2.6 0.00 0.00 0.00 16 1008.4
20260501223142 89 100 1.7 1.7 0.00 0.00 0.00 16 1008.8
20260501221638 88 173 5.2 7.8 0.00 0.00 0.00 17 1008.9
20260501220136 89 271 5.2 6.1 0.00 0.00 0.00 17 1008.9
20260501214634 89 168 1.7 1.7 0.00 0.00 0.00 17 1009.5
20260501213129 88 185 1.7 2.6 0.00 0.00 0.00 16 1009.5
20260501211625 90 172 0.9 0.9 0.00 0.00 0.00 16 1010.0
20260501210122 87 165 6.1 7.0 0.00 0.00 0.00 16 1010.1
20260501204618 86 221 0.9 1.7 0.00 0.00 0.00 16 1010.2
20260501203115 86 208 1.7 2.6 0.00 0.00 0.00 19 1010.6
20260501201611 86 149 0.9 0.9 0.00 0.00 0.00 19 1010.8
20260501200108 86 174 3.5 5.2 0.00 0.00 0.00 20 1010.9
20260501194608 86 248 2.6 2.6 0.00 0.00 0.00 20 1011.0
20260501193106 83 247 2.6 4.3 0.00 0.00 0.00 22 1011.5
20260501191603 83 186 0.9 0.9 0.00 0.00 0.00 22 1011.8
20260501184602 82 206 2.6 4.3 0.00 0.00 0.00 24 1011.9
20260501183102 83 215 2.6 2.6 0.00 0.00 0.00 24 1012.2
20260501181559 82 82 0.9 1.7 0.00 0.00 0.00 23 1012.4
20260501180055 83 123 1.7 2.6 0.00 0.00 0.00 22 1012.5
20260501174552 79 153 0.9 0.9 0.00 0.00 0.00 25 1012.4
20260501173049 79 120 0.9 0.9 0.00 0.00 0.00 26 1012.8